GW4438 Weather Reports


Display with metric or nautical units.
time (UTC)temp
F
wind
direction
speed
MPH
gust
MPH
rain 1hr
in
rain 24hr
in
rain mn
in
humidity
%
barometer
mb
20260507020025 57 285 0.0 0.0 0.00 0.00 0.00 67 1015.7
20260507014624 57 285 0.0 0.0 0.00 0.00 0.00 66 1015.7
20260507013010 57 285 0.0 0.0 0.00 0.00 0.00 66 1015.4
20260507011555 58 285 0.0 0.0 0.00 0.00 0.00 65 1015.2
20260507010058 58 285 0.0 0.0 0.00 0.00 0.00 65 1014.9
20260507004612 58 285 0.0 0.0 0.00 0.00 0.00 65 1014.9
20260507003125 59 285 0.0 0.0 0.00 0.00 0.00 61 1014.7
20260507001507 59 285 0.0 0.0 0.00 0.00 0.00 63 1014.7
20260507000022 59 285 0.0 0.0 0.00 0.00 0.00 64 1015.0
20260506234606 59 285 0.0 0.0 0.00 0.00 0.00 63 1015.4
20260506233117 58 285 0.0 0.0 0.00 0.00 0.00 63 1015.6
20260506231628 59 285 0.0 0.0 0.00 0.00 0.00 62 1015.7
20260506230000 59 285 0.0 0.0 0.00 0.00 0.00 63 1015.7
20260506224524 59 285 0.0 0.0 0.00 0.00 0.00 61 1015.7
20260506223053 60 285 0.0 0.0 0.00 0.00 0.00 61 1015.7
20260506221605 60 285 0.0 0.0 0.00 0.00 0.00 59 1015.8
20260506220121 61 285 0.0 0.0 0.00 0.00 0.00 59 1015.9
20260506214506 60 285 0.0 0.0 0.00 0.00 0.00 61 1015.9
20260506213045 60 285 0.0 0.0 0.00 0.00 0.00 60 1016.1
20260506211557 61 285 0.0 0.0 0.00 0.00 0.00 58 1016.2
20260506210121 61 285 0.0 0.0 0.00 0.00 0.00 57 1016.3
20260506204619 62 285 0.0 0.0 0.00 0.00 0.00 57 1016.5
20260506203145 62 285 0.0 0.0 0.00 0.00 0.00 56 1016.4
20260506201510 63 285 0.0 0.0 0.00 0.00 0.00 54 1016.3
20260506200049 64 285 0.0 0.0 0.00 0.00 0.00 52 1016.2
20260506194526 65 285 0.0 0.0 0.00 0.00 0.00 51 1016.0
20260506193104 65 285 0.0 0.0 0.00 0.00 0.00 51 1015.9
20260506191619 65 285 0.0 0.0 0.00 0.00 0.00 50 1015.6
20260506190053 65 322 0.0 0.0 0.00 0.00 0.00 50 1015.4
20260506184602 65 322 0.0 1.0 0.00 0.00 0.00 51 1015.3
20260506183113 65 351 0.0 1.0 0.00 0.00 0.00 49 1015.2
20260506181614 67 351 0.0 0.0 0.00 0.00 0.00 48 1014.9
20260506180123 68 351 0.0 2.0 0.00 0.00 0.00 46 1014.8
20260506174507 70 353 0.0 4.0 0.00 0.00 0.00 40 1014.7
20260506173059 70 348 0.0 6.0 0.00 0.00 0.00 40 1014.5
20260506171612 71 3 0.0 6.0 0.00 0.00 0.00 40 1014.5
20260506170113 71 134 3.0 8.0 0.00 0.00 0.00 40 1014.3
20260506164624 72 84 3.0 6.0 0.00 0.00 0.00 39 1014.3
20260506163143 73 106 2.0 11.0 0.00 0.00 0.00 38 1014.4
20260506161512 74 39 3.0 10.0 0.00 0.00 0.00 36 1014.3
20260506160020 75 27 2.0 9.0 0.00 0.00 0.00 35 1014.1
20260506154555 75 41 2.0 10.0 0.00 0.00 0.00 36 1014.2
20260506153136 75 8 4.0 12.0 0.00 0.00 0.00 36 1014.4
20260506151614 76 11 2.0 9.0 0.00 0.00 0.00 37 1014.5
20260506150125 76 79 1.0 7.0 0.00 0.00 0.00 38 1014.5
20260506144505 75 59 3.0 12.0 0.00 0.00 0.00 40 1014.5
20260506143041 75 114 5.0 13.0 0.00 0.00 0.00 39 1014.6
20260506141551 76 46 3.0 10.0 0.00 0.00 0.00 41 1014.6
20260506140103 76 91 4.0 11.0 0.00 0.00 0.00 40 1014.6
20260506134613 76 253 3.0 14.0 0.00 0.00 0.00 41 1014.7
20260506133120 76 104 3.0 9.0 0.00 0.00 0.00 40 1014.7
20260506131630 76 129 2.0 10.0 0.00 0.00 0.00 39 1014.8
20260506130008 77 335 1.0 10.0 0.00 0.00 0.00 39 1014.8
20260506124516 77 7 4.0 12.0 0.00 0.00 0.00 39 1014.8
20260506123057 77 88 3.0 11.0 0.00 0.00 0.00 38 1014.9
20260506121612 77 29 4.0 11.0 0.00 0.00 0.00 36 1015.1
20260506120106 77 44 3.0 9.0 0.00 0.00 0.00 34 1015.3
20260506114616 77 82 4.0 8.0 0.00 0.00 0.00 35 1015.2
20260506113128 77 58 4.0 10.0 0.00 0.00 0.00 39 1015.3
20260506111510 77 86 2.0 8.0 0.00 0.00 0.00 38 1015.4
20260506110017 76 288 3.0 9.0 0.00 0.00 0.00 39 1015.5
20260506104552 77 29 4.0 9.0 0.00 0.00 0.00 40 1015.5
20260506103106 77 59 2.0 7.0 0.00 0.00 0.00 38 1015.4
20260506101637 77 80 3.0 6.0 0.00 0.00 0.00 38 1015.5
20260506100052 76 51 3.0 8.0 0.00 0.00 0.00 41 1015.6
20260506094503 76 88 2.0 6.0 0.00 0.00 0.00 41 1015.8
20260506093006 75 98 3.0 7.0 0.00 0.00 0.00 42 1015.7
20260506091505 75 64 1.0 7.0 0.00 0.00 0.00 41 1015.8
20260506090008 77 101 1.0 5.0 0.00 0.00 0.00 40 1015.7
20260506084504 75 43 2.0 5.0 0.00 0.00 0.00 42 1015.7
20260506083119 75 71 1.0 6.0 0.00 0.00 0.00 41 1015.7
20260506081503 74 87 1.0 5.0 0.00 0.00 0.00 44 1015.7
20260506080119 74 77 2.0 7.0 0.00 0.00 0.00 42 1015.7
20260506073023 72 86 0.0 5.0 0.00 0.00 0.00 44 1015.3
20260506070107 72 67 1.0 4.0 0.00 0.00 0.00 41 1015.2
20260506061510 71 334 0.0 1.0 0.00 0.00 0.00 43 1015.3
20260506060117 70 333 0.0 0.0 0.00 0.00 0.00 46 1015.3
20260506044557 63 322 0.0 1.0 0.00 0.00 0.00 59 1014.9
20260506043108 61 322 0.0 1.0 0.00 0.00 0.00 63 1014.8
20260506041619 58 322 0.0 1.0 0.00 0.00 0.00 66 1014.7
20260506040004 57 322 0.0 1.0 0.00 0.00 0.00 67 1014.7
20260506034525 57 322 0.0 1.0 0.00 0.00 0.00 66 1014.4
20260506033026 57 323 0.0 1.0 0.00 0.00 0.00 67 1014.4
20260506031604 57 322 0.0 1.0 0.00 0.00 0.00 68 1014.4
20260506030115 57 322 0.0 0.0 0.00 0.00 0.00 70 1014.2
20260506024625 57 321 0.0 1.0 0.00 0.00 0.00 70 1014.1
20260506023010 56 322 0.0 2.0 0.00 0.00 0.00 71 1014.3
20260506021523 56 322 0.0 0.0 0.00 0.00 0.00 73 1014.4